RH
3 3 3 3 3 3 3 3 3 3 3 3 3 3 3 3 3 3 3 3 3 3 3 3 4 4 4 4 5 5 5 5 5 5 4 4 4 4 4 4 5 5 4 4 4 5 5 5 5 5 5 5
3 3 3 3 3 3 3 3 3 3 3 3 3 3 3 3 4 4 4 4 4 5 4 5 5 5 5 5 6 6 6 6 6 6 6 6 5 5 5 5 6 5 5 5 5 5 6 6 6 6 6 6
3 3 3 3 3 3 3 3 3 3 3 3 3 4 4 4 5 5 6 6 6 6 6 6 6 6 7 7 7 7 7 8 8 7 7 7 7 6 6 6 6 7 6 6 5 5 6 6 7 7 7 7
3 3 3 3 3 3 3 3 3 3 3 4 4 4 5 5 6 7 7 8 8 8 8 8 8 8 8 8 8 8 8 8 8 8 8 8 8 7 7 7 7 7 7 7 7 6 6 7 7 8 7 7
3 3 3 3 3 3 3 4 4 4 4 4 5 5 6 6 7 8 9 9 10 10 10 10 10 10 9 9 9 9 9 9 9 9 9 9 9 9 8 8 8 7 8 8 8 7 7 7 7 7 8 8
4 4 4 4 4 4 4 4 4 4 5 5 6 6 7 8 9 10 10 11 12 12 12 12 12 12 11 11 11 11 11 11 10 10 10 10 10 10 10 10 9 9 8 8 8 8 9 8 8 7 8 8
4 4 4 4 4 5 5 5 5 6 6 7 7 8 9 10 11 12 13 14 14 15 15 15 15 14 14 13 13 12 12 12 12 11 11 11 11 11 11 11 11 11 10 9 9 9 10 9 9 9 8 9
5 5 5 5 5 5 6 6 7 7 8 8 9 10 12 13 14 15 16 16 16 17 18 18 17 17 16 15 15 14 14 13 13 13 12 12 12 11 12 13 13 13 13 12 11 11 10 10 10 10 9 10
6 6 6 6 6 7 7 8 8 9 10 11 12 13 14 16 17 17 18 18 18 19 19 20 20 20 19 18 17 16 16 15 14 14 14 13 12 12 12 12 13 14 15 15 14 13 12 11 11 11 11 10
6 6 6 6 7 8 8 9 10 11 12 14 15 16 18 19 20 20 20 20 20 21 21 22 22 22 21 21 20 20 20 18 18 16 16 15 14 13 12 12 12 13 14 15 15 14 13 13 12 12 12 12
7 7 7 7 8 9 10 11 13 14 16 17 18 19 21 22 23 23 23 23 22 22 22 23 23 22 21 22 24 26 28 27 26 24 23 21 19 17 15 14 13 12 12 12 13 13 13 13 13 13 12 12
7 8 9 10 11 11 12 14 15 18 19 20 21 22 23 24 25 25 24 24 23 22 21 21 20 20 20 22 26 31 35 37 36 34 32 31 29 27 24 21 19 16 14 12 12 11 11 11 11 12 11 11
9 11 12 13 14 15 16 17 19 21 22 23 23 24 24 25 25 26 25 23 22 20 19 18 18 18 20 23 27 31 35 38 40 39 37 36 34 32 31 30 27 25 23 20 17 15 14 12 10 10 9 9
12 13 15 17 18 19 20 22 24 25 25 25 24 24 24 24 25 25 24 23 21 20 19 19 19 20 23 26 28 31 34 36 38 38 38 36 34 32 31 30 29 28 27 24 23 21 20 18 15 13 11 11
15 17 19 21 23 24 26 28 29 29 28 26 25 24 23 24 24 24 23 23 22 20 20 20 21 23 26 29 31 32 34 35 36 37 37 36 34 33 31 30 29 27 27 26 23 22 21 20 18 17 16 15
21 23 26 28 30 31 32 33 32 31 29 28 26 24 23 24 24 24 23 23 21 20 20 21 22 24 27 30 31 32 34 35 35 36 36 36 36 36 35 33 32 29 29 30 27 24 23 21 20 19 17 16
29 32 35 37 38 39 39 38 36 35 33 32 30 26 25 25 25 25 24 22 20 19 20 20 20 22 24 26 28 30 32 33 34 35 36 36 36 37 37 37 35 32 31 31 29 28 26 24 24 22 20 19
39 41 43 44 44 44 44 42 40 38 36 36 34 31 28 27 27 26 26 23 19 19 19 19 19 19 20 21 23 25 27 28 30 32 33 33 34 34 35 35 35 34 33 31 29 28 27 26 26 24 23 22
42 44 45 45 45 45 45 43 41 39 38 38 36 34 32 30 29 29 28 26 23 21 19 19 19 18 17 18 19 20 21 23 25 26 28 29 30 30 31 31 31 31 31 30 29 28 26 25 25 24 24 23
42 42 42 43 43 42 42 41 39 38 38 37 35 34 34 32 32 31 30 29 27 25 24 22 22 20 18 17 16 17 18 20 22 23 25 26 27 27 28 28 27 28 27 27 28 27 27 26 25 24 24 23
40 40 39 38 39 38 39 39 37 37 37 36 35 34 33 32 31 30 29 29 28 28 27 25 23 22 19 18 16 15 15 16 17 19 20 22 24 23 24 26 27 27 27 26 27 28 29 29 27 26 26 25
39 37 36 34 34 35 35 35 33 33 33 33 33 32 31 29 28 27 26 26 26 25 25 23 22 20 18 17 16 16 18 19 20 20 20 23 26 25 23 27 29 29 28 26 26 28 30 30 29 28 28 27
35 33 32 31 31 32 32 31 30 29 29 29 29 28 28 27 27 26 25 24 23 22 21 20 19 19 19 20 22 26 31 34 35 34 32 32 35 33 30 29 31 31 30 28 27 28 30 29 28 28 28 27
32 32 32 33 34 34 34 34 34 33 32 31 30 29 29 29 28 26 25 23 22 21 22 23 26 30 35 37 40 44 49 51 50 48 45 43 42 41 39 36 34 34 31 29 30 30 30 30 29 28 27 26
35 36 37 38 38 38 40 43 44 43 40 36 32 29 27 26 26 26 27 28 31 35 40 46 51 56 59 59 57 58 58 57 55 52 50 47 44 43 42 40 39 36 32 30 31 30 29 29 29 28 27 26
40 39 37 35 35 36 38 43 45 45 44 40 36 34 35 37 40 44 48 53 57 61 65 68 69 69 68 65 62 60 57 55 53 51 49 47 45 43 41 41 41 38 34 32 31 31 29 29 29 28 26 25
36 34 32 32 34 36 40 46 51 54 58 59 59 60 61 62 64 66 67 69 69 69 69 69 67 66 63 61 59 56 54 53 51 50 48 46 45 43 41 40 40 39 36 34 32 30 29 28 28 28 27 25
38 41 45 49 53 56 60 64 67 69 70 71 71 70 69 67 66 64 63 63 62 62 61 60 59 58 56 55 54 52 51 50 49 48 47 46 44 42 41 40 39 39 37 35 32 30 28 26 26 26 28 28
58 61 63 64 65 65 64 64 64 63 62 61 60 60 61 60 59 56 54 53 53 52 51 52 51 51 51 50 50 49 48 47 47 47 46 45 43 42 40 39 38 38 38 37 34 31 29 27 25 25 26 27
67 64 61 58 57 57 56 55 54 52 49 49 50 52 54 57 57 56 53 51 50 49 48 47 47 46 46 46 46 45 45 45 45 45 45 45 44 43 42 40 38 39 40 39 38 36 34 30 28 26 26 26
61 57 56 57 58 58 55 51 49 49 49 50 50 50 50 51 51 50 48 46 45 44 43 43 43 43 43 43 42 42 42 43 44 45 46 47 47 46 46 43 41 41 42 42 41 40 38 36 32 30 28 27
Wind_Speed
46 47 47 48 49 50 51 52 53 54 55 56 57 58 58 59 60 61 61 61 62 62 62 61 61 60 60 59 57 56 55 55 54 54 54 54 53 52 51 50 49 48 47 47 47 47 47 47 48 48 48 48
47 48 49 50 51 52 53 54 55 56 56 57 58 59 59 60 60 61 61 61 61 61 61 60 60 59 58 57 56 55 55 54 53 53 53 53 52 52 51 51 49 48 48 47 47 47 47 48 48 48 48 48
49 50 50 51 52 53 54 55 56 57 57 58 59 59 60 60 60 60 60 60 59 59 59 58 58 57 56 55 55 54 54 53 53 52 52 52 52 52 52 51 50 49 48 48 47 47 48 48 48 48 48 48
50 51 52 53 53 54 55 56 57 58 58 59 60 60 60 60 59 58 58 57 57 56 56 55 55 54 54 53 53 53 53 53 52 52 52 52 52 52 52 52 51 51 50 49 48 48 48 48 49 49 49 49
51 52 53 54 55 55 56 57 58 59 60 60 60 60 59 59 58 57 56 55 54 54 53 53 52 51 51 51 51 51 51 51 51 51 51 51 51 51 51 52 52 52 51 50 49 49 49 49 49 49 49 50
53 53 54 54 55 56 57 58 59 60 60 60 59 59 58 57 56 55 54 53 52 51 50 50 49 49 49 49 48 48 49 49 49 50 49 49 49 49 50 50 51 51 52 51 51 50 50 50 50 50 50 50
54 54 54 55 56 57 58 59 59 59 59 58 58 57 56 55 54 53 52 51 50 48 48 47 46 46 46 46 46 45 46 46 46 47 47 48 48 48 48 49 49 50 51 52 52 51 51 51 51 51 51 51
54 54 55 56 57 58 58 58 58 58 57 57 57 56 55 53 52 51 49 48 47 46 44 44 43 43 43 43 43 43 43 43 43 44 44 45 46 46 47 48 48 49 50 51 52 52 52 52 52 52 52 52
54 54 56 57 57 58 57 57 57 57 56 56 55 54 53 51 50 49 47 46 45 43 42 41 41 41 41 41 41 41 41 41 41 41 42 42 43 44 45 46 47 48 49 50 51 52 53 53 53 53 53 53
55 56 57 58 57 57 56 56 56 56 55 55 54 52 51 49 48 47 45 44 43 42 41 41 41 41 41 42 42 41 41 41 40 40 40 41 41 42 42 44 45 46 48 49 50 52 53 53 54 54 54 54
56 57 58 58 57 56 56 55 55 55 55 53 52 51 49 48 46 45 44 44 44 44 43 43 43 43 43 43 43 43 42 42 41 41 41 40 40 41 41 41 42 44 45 47 48 50 52 53 54 54 54 55
57 57 57 57 56 55 55 55 55 55 53 52 51 49 48 47 46 45 44 45 45 45 45 45 45 45 45 45 45 44 44 44 44 43 43 42 42 41 41 41 42 42 43 44 45 47 49 51 52 53 54 54
57 57 57 56 55 55 55 55 55 54 52 51 50 49 48 47 46 45 45 45 46 47 47 47 47 47 47 47 47 47 46 46 46 46 46 45 44 44 43 43 43 43 43 44 44 45 47 48 49 51 52 53
57 57 56 55 55 54 54 54 54 53 52 52 51 50 49 48 47 46 46 46 47 48 48 48 48 48 48 49 49 48 48 48 47 47 48 47 47 46 46 46 45 45 45 46 46 46 47 48 48 49 50 51
57 56 56 55 55 54 54 54 53 53 53 52 52 51 49 48 48 47 47 47 48 49 49 49 49 50 50 50 50 50 49 49 49 48 49 49 49 48 48 48 47 47 47 48 48 48 48 49 50 50 51 51
55 55 55 54 54 54 53 54 54 54 53 53 52 52 51 50 49 48 48 49 49 50 50 50 50 51 52 52 51 51 51 50 50 50 50 50 50 50 50 50 50 49 49 49 50 50 50 50 51 51 52 53
54 53 53 53 53 53 54 55 55 54 54 53 53 53 52 52 51 50 50 50 50 50 50 51 51 52 53 54 53 53 53 53 53 53 52 52 52 52 52 52 53 53 52 52 52 52 52 52 53 53 53 54
53 52 52 52 53 54 55 56 55 55 54 54 54 54 54 54 54 53 53 53 52 52 52 52 53 54 55 56 56 56 56 56 56 56 56 56 56 55 56 56 56 57 56 56 56 56 56 56 56 56 56 57
52 52 52 53 54 55 56 57 57 56 55 55 55 55 56 56 56 56 56 56 56 56 56 56 56 56 57 57 58 58 59 59 59 60 60 60 60 59 59 59 59 60 60 60 60 60 60 60 60 60 61 61
53 53 53 54 55 56 57 58 58 57 57 56 56 56 56 57 58 59 59 60 60 60 60 61 61 61 61 61 60 61 61 61 62 62 63 63 63 63 63 63 63 63 64 64 64 64 64 64 64 64 65 65
54 54 54 55 56 57 58 58 58 58 57 57 57 56 57 58 59 60 61 62 63 63 64 64 64 64 64 64 64 63 63 63 64 65 65 65 66 66 66 66 66 66 67 67 66 66 67 68 68 68 68 69
54 55 55 56 57 58 59 59 59 58 58 58 57 58 58 59 60 60 61 62 63 64 65 65 66 66 66 67 66 66 65 65 66 66 66 66 67 68 68 68 68 69 70 70 69 69 70 70 71 71 71 72
54 55 56 56 57 58 59 60 60 60 60 59 59 59 60 60 61 62 62 63 64 65 66 66 67 67 68 68 68 67 67 67 67 68 68 69 69 70 71 71 71 72 72 72 72 72 72 73 73 74 74 74
54 55 56 57 58 59 60 61 61 62 62 62 61 61 61 61 62 63 64 65 66 66 67 67 68 68 68 69 69 69 68 68 69 70 70 71 71 71 72 73 74 74 74 74 74 74 74 74 74 75 76 76
55 56 57 58 59 59 60 61 62 62 63 63 63 63 63 63 64 65 65 66 67 67 67 68 68 68 69 69 70 70 71 71 71 72 72 73 73 73 73 73 74 76 76 76 76 75 75 75 75 75 76 76
57 58 59 60 60 60 60 60 61 62 63 64 65 65 65 65 65 66 66 67 67 67 68 68 68 69 70 71 72 72 73 73 73 73 73 74 74 74 74 74 74 76 77 77 77 77 76 76 76 76 77 77
59 60 60 60 60 60 59 59 60 61 62 64 65 66 67 67 67 67 67 68 68 68 68 69 69 70 72 73 73 74 74 73 73 73 73 74 74 75 75 75 75 76 77 78 78 79 78 77 76 75 77 78
60 60 61 61 61 61 61 61 61 61 62 63 64 66 67 69 69 69 69 69 69 70 70 70 71 71 72 73 74 74 74 73 73 74 74 75 76 76 76 76 76 77 77 78 80 80 80 80 79 78 77 78
61 62 62 62 62 62 63 63 63 63 63 63 64 65 66 68 70 71 71 72 72 72 72 72 73 73 73 73 74 74 74 74 74 75 76 77 77 78 78 78 78 78 78 79 80 81 82 82 82 81 80 79
62 63 63 64 64 64 64 65 65 65 65 65 65 65 66 68 70 72 73 74 75 75 75 74 74 75 75 75 76 76 76 76 76 77 77 78 79 79 80 80 80 79 79 80 80 81 82 83 84 83 83 83
63 64 65 66 67 67 68 68 68 69 69 69 68 69 69 69 70 71 73 74 76 77 77 77 77 78 78 78 79 79 79 79 79 79 79 80 80 81 81 82 81 80 81 81 81 82 83 83 84 85 85 85
Wind_Direction
289 288 288 288 288 288 288 288 288 288 288 288 288 287 287 286 286 285 284 283 282 281 280 279 278 277 276 274 273 272 271 270 269 268 267 266 264 262 260 258 256 255 253 251 250 248 248 247 246 245 246 247
288 288 288 288 288 288 288 289 289 289 289 289 288 288 287 286 286 285 284 283 281 280 279 277 276 275 273 272 271 270 269 267 266 266 265 264 263 262 260 258 256 254 252 250 248 246 245 245 245 244 244 245
288 288 288 289 289 289 289 290 290 290 289 289 288 287 287 286 285 284 283 282 281 280 278 277 275 274 273 271 270 268 267 266 265 264 263 262 262 261 260 258 257 255 252 250 248 246 244 243 243 243 243 243
288 289 289 290 290 290 291 291 290 290 289 289 288 287 287 286 285 284 282 281 280 279 278 277 275 274 272 271 270 268 267 265 264 263 262 261 260 259 259 258 257 256 254 251 249 247 245 243 242 241 241 241
289 290 291 292 292 292 292 291 290 290 289 289 288 287 286 285 284 283 282 281 279 278 277 276 274 273 271 270 269 268 267 265 264 262 261 260 258 258 257 257 256 256 255 253 251 248 246 244 242 241 240 240
291 292 292 293 292 292 291 290 290 290 289 289 288 287 286 285 284 282 281 280 278 277 275 274 273 271 270 269 268 267 266 265 264 263 262 260 258 257 256 255 255 255 254 254 252 250 248 246 244 242 241 240
292 293 293 292 291 291 290 289 289 289 289 288 287 286 285 284 283 282 280 279 277 276 274 273 272 271 270 269 268 267 266 265 264 263 263 261 260 258 256 255 254 253 253 253 253 251 250 248 246 244 243 241
292 292 291 290 290 289 289 289 289 288 288 287 286 286 285 284 283 281 279 278 276 275 273 273 272 271 271 270 268 267 267 266 265 264 263 262 261 259 258 256 254 253 253 253 252 252 251 250 249 247 246 244
291 290 289 289 288 288 288 288 288 287 286 286 286 285 284 283 281 280 279 277 276 274 273 273 272 272 271 271 270 269 268 267 266 265 264 263 261 260 259 257 256 254 253 252 252 252 252 251 250 249 248 247
289 288 288 287 287 288 288 287 286 286 285 285 284 283 282 281 280 279 278 277 276 275 274 273 272 272 272 271 271 270 269 268 267 265 265 264 262 261 260 258 257 256 255 253 253 252 252 252 252 251 250 249
288 287 287 287 287 286 286 285 284 284 283 283 283 282 280 279 278 277 277 277 277 276 275 274 273 273 272 272 271 270 269 268 267 266 265 264 263 262 261 259 258 257 256 255 254 254 253 253 253 252 252 251
287 286 286 286 286 285 284 283 283 283 282 282 281 280 278 276 275 275 275 276 276 276 276 275 274 274 273 272 271 270 269 269 268 267 265 264 262 261 260 259 259 258 257 256 256 255 255 254 254 253 253 252
286 285 285 285 284 283 282 282 282 282 282 281 279 278 276 274 273 273 274 275 276 276 276 276 275 274 273 273 271 270 270 269 268 268 267 265 264 262 261 260 258 258 257 257 256 256 256 256 255 255 254 254
285 284 284 284 283 282 282 281 282 281 281 279 278 276 274 272 271 272 273 274 276 276 276 276 275 274 274 273 272 271 270 269 268 267 266 266 265 264 262 261 260 258 258 257 256 255 255 255 256 256 255 255
284 284 283 282 282 281 281 281 281 280 279 279 278 275 273 272 271 271 272 274 275 276 276 276 275 275 274 273 272 271 270 269 267 266 266 265 265 264 264 263 262 260 259 259 257 256 255 255 255 255 255 255
283 282 282 281 281 281 281 280 280 280 280 280 278 276 273 272 271 271 271 273 274 275 275 276 275 275 274 273 272 271 270 269 267 266 265 264 264 264 264 264 263 261 260 260 259 257 256 255 255 254 254 254
281 281 280 280 280 280 280 280 280 281 281 281 280 277 275 273 271 271 271 272 273 274 275 276 276 275 274 273 272 272 270 269 268 267 265 264 264 263 263 263 263 262 261 260 259 258 258 257 256 255 254 254
279 279 279 279 279 279 280 280 281 282 282 282 281 279 277 275 273 272 271 272 273 274 275 276 277 276 275 274 273 272 271 270 269 268 266 265 264 263 263 262 262 262 262 261 260 259 258 258 257 256 256 255
277 277 277 278 279 279 280 281 282 282 282 281 281 280 278 276 275 274 273 273 274 275 276 276 277 277 276 275 274 272 271 270 269 268 267 266 265 264 263 263 262 262 262 262 261 261 260 259 258 258 257 256
278 278 278 279 280 280 281 282 282 282 282 281 280 280 279 278 276 275 275 274 275 275 276 277 277 278 277 276 275 274 272 271 270 268 268 267 266 265 265 264 264 263 262 262 262 262 262 261 260 259 258 258
279 280 280 281 281 281 282 282 282 282 282 281 281 280 280 279 278 277 277 276 276 277 277 277 277 278 278 277 276 275 274 272 271 270 269 268 268 266 266 266 265 265 264 263 263 263 263 263 262 261 260 260
281 281 282 282 282 282 282 283 283 283 283 282 282 282 281 281 280 279 279 278 278 278 278 278 278 278 278 277 276 276 275 274 273 271 270 269 269 268 267 267 267 266 266 265 264 264 264 264 263 263 263 262
281 282 282 282 283 283 283 284 284 284 284 283 283 282 282 281 281 281 280 280 280 280 280 280 279 279 278 278 277 277 276 275 274 273 272 271 271 271 270 269 269 268 268 267 266 266 265 265 264 264 264 263
282 282 283 283 283 284 285 286 286 286 285 285 284 283 282 282 282 282 282 281 281 281 281 281 280 280 279 279 278 277 277 276 276 275 274 273 273 272 272 271 271 270 269 268 268 267 266 266 265 264 264 263
282 283 283 283 283 284 285 285 286 286 285 285 284 284 283 283 283 282 282 282 282 282 281 281 281 280 280 279 278 278 277 277 276 276 275 274 274 273 273 272 272 271 270 269 268 268 267 267 266 265 264 263
284 284 284 284 284 283 283 284 284 285 285 286 286 285 285 284 283 283 283 282 282 281 281 281 280 280 280 279 279 278 278 277 277 276 276 275 274 274 273 273 272 272 271 270 269 268 267 267 267 267 266 264
286 285 285 285 284 284 284 283 283 284 284 285 285 286 285 285 284 283 282 282 281 281 281 281 281 281 280 280 280 279 279 278 278 277 277 276 276 275 274 274 273 273 272 271 270 269 268 267 267 267 267 266
287 287 286 286 286 285 285 285 284 284 284 284 285 286 286 286 285 284 284 283 282 282 281 281 281 281 281 281 280 280 279 279 279 279 278 278 277 276 276 275 274 274 274 273 271 270 269 268 266 266 266 267
287 287 287 287 287 288 288 288 288 287 287 287 288 288 289 289 289 288 287 286 286 285 284 284 283 282 282 281 281 280 280 280 280 280 279 279 278 277 276 276 275 275 275 274 273 272 270 269 267 266 266 266
287 288 289 290 290 291 291 291 291 290 290 290 289 290 290 290 291 290 290 289 289 288 287 286 285 284 283 282 282 281 280 280 280 279 279 279 278 278 277 276 276 275 275 275 274 273 272 271 270 268 267 267
290 292 294 295 295 295 295 294 293 293 293 292 292 291 291 290 290 290 290 289 289 289 288 287 286 285 284 283 283 282 281 281 280 279 279 279 278 278 277 276 276 275 275 275 274 274 273 273 272 271 270 269